| Date | Time | Temp. (oF) | Dew Point (oF) | Rel. Hum. (%) | Press. (in.) | Wind Dir. | Wind Speed (mph) | Hourly Rainfall (in.) |
|
|---|---|---|---|---|---|---|---|---|---|
| 1 | 10/27 | 00:00 | 71 | 64 | 80 | 29.78 | NNW | 0 | 0.00 |
| 2 | 10/26 | 23:00 | 72 | 66 | 82 | 29.78 | NNW | 0 | 0.00 |
| 3 | 10/26 | 22:00 | 71 | 64 | 80 | 29.78 | NNW | 0 | 0.00 |
| 4 | 10/26 | 21:00 | 70 | 62 | 78 | 29.78 | NNW | 0 | 0.00 |
| 5 | 10/26 | 20:00 | 69 | 61 | 77 | 29.78 | NNW | 0 | 0.00 |
| 6 | 10/26 | 19:00 | 68 | 61 | 79 | 29.77 | NNW | 0 | 0.00 |
| 7 | 10/26 | 18:00 | 68 | 60 | 77 | 29.78 | NNW | 0 | 0.00 |
| 8 | 10/26 | 17:00 | 67 | 59 | 77 | 29.79 | NNW | 0 | 0.00 |
| 9 | 10/26 | 16:00 | 66 | 59 | 81 | 29.80 | NNW | 0 | 0.00 |
| 10 | 10/26 | 15:00 | 67 | 61 | 84 | 29.81 | NNW | 0 | 0.00 |
| 11 | miss | miss | miss | miss | miss | miss | miss | miss | |
| 12 | 10/25 | 18:02 | 70 | 64 | 83 | 29.76 | NNW | 0 | 0.00 |
| 13 | miss | miss | miss | miss | miss | miss | miss | miss | |
| 14 | 10/25 | 18:00 | 70 | 64 | 83 | 29.76 | NNW | 0 | 0.00 |
| 15 | 10/25 | 17:59 | 70 | 64 | 83 | 29.76 | NNW | 0 | 0.00 |
| 16 | 10/25 | 17:58 | 70 | 64 | 83 | 29.76 | NNW | 0 | 0.00 |
| 17 | 10/25 | 17:57 | 70 | 64 | 83 | 29.76 | NNW | 0 | 0.00 |
| 18 | 10/25 | 17:56 | 70 | 64 | 83 | 29.76 | NNW | 0 | 0.00 |
| 19 | 10/25 | 17:55 | 70 | 64 | 83 | 29.76 | NNW | 0 | 0.00 |
| 20 | miss | miss | miss | miss | miss | miss | miss | miss | |
| 21 | 10/25 | 17:53 | 70 | 64 | 83 | 29.77 | NNW | 0 | 0.00 |
| 22 | miss | miss | miss | miss | miss | miss | miss | miss | |
| 23 | 10/25 | 17:51 | 70 | 64 | 83 | 29.77 | NNW | 0 | 0.00 |
| 24 | miss | miss | miss | miss | miss | miss | miss | miss | |
| 25 | 10/25 | 17:49 | 70 | 64 | 83 | 29.77 | NNW | 0 | 0.00 |
| 26 | miss | miss | miss | miss | miss | miss | miss | miss | |
| 27 | 10/25 | 17:49 | 70 | 64 | 83 | 29.77 | NNW | 0 | 0.00 |
| 28 | miss | miss | miss | miss | miss | miss | miss | miss | |
| 29 | 10/25 | 17:49 | 70 | 64 | 83 | 29.77 | NNW | 0 | 0.00 |
| 30 | miss | miss | miss | miss | miss | miss | miss | miss | |
| 31 | 10/25 | 17:49 | 70 | 64 | 83 | 29.77 | NNW | 0 | 0.00 |
| 32 | 10/25 | 17:00 | 71 | 64 | 80 | 29.76 | NNW | 0 | 0.00 |
| 33 | 10/25 | 16:00 | 71 | 64 | 80 | 29.76 | NNW | 0 | 0.00 |
| 34 | 10/25 | 15:00 | 72 | 62 | 73 | 29.80 | NNW | 0 | 0.00 |
| 35 | 10/25 | 14:00 | 72 | 63 | 74 | 29.84 | NNW | 0 | 0.00 |
| 36 | 10/25 | 13:00 | 71 | 64 | 79 | 29.88 | NNW | 0 | 0.00 |
| 37 | 10/25 | 12:00 | 68 | 62 | 83 | 29.91 | NNW | 0 | 0.00 |
| 38 | 10/25 | 11:00 | 64 | 59 | 85 | 29.94 | NNW | 0 | 0.00 |
| 39 | 10/25 | 10:00 | 62 | 57 | 85 | 29.96 | NNW | 0 | 0.00 |
| 40 | 10/25 | 09:00 | 57 | 51 | 83 | 29.97 | NNW | 0 | 0.00 |
| 41 | 10/25 | 08:00 | 52 | 46 | 80 | 29.97 | NNW | 0 | 0.00 |
| 42 | 10/25 | 07:00 | 51 | 45 | 80 | 29.95 | NNW | 0 | 0.00 |
| 43 | 10/25 | 06:00 | 53 | 47 | 83 | 29.96 | NNW | 0 | 0.00 |
| 44 | 10/25 | 05:00 | 52 | 47 | 86 | 29.96 | NNW | 0 | 0.00 |
| 45 | 10/25 | 04:00 | 53 | 49 | 88 | 29.96 | NNW | 0 | 0.00 |
| 46 | 10/25 | 03:00 | 56 | 51 | 85 | 29.97 | NNW | 0 | 0.00 |
| 47 | 10/25 | 02:00 | 57 | 51 | 83 | 29.97 | NNW | 0 | 0.00 |
| 48 | 10/25 | 01:00 | 54 | 50 | 87 | 29.98 | NNW | 0 | 0.00 |
| 49 | 10/25 | 00:00 | 54 | 50 | 87 | 30.00 | NNW | 0 | 0.00 |
| 50 | 10/24 | 23:00 | 58 | 51 | 80 | 30.02 | NNW | 0 | 0.00 |
| 51 | 10/24 | 22:00 | 59 | 51 | 75 | 30.02 | NNW | 0 | 0.00 |
| 52 | 10/24 | 21:00 | 61 | 51 | 72 | 30.01 | NNW | 0 | 0.00 |
| 53 | 10/24 | 20:00 | 62 | 50 | 66 | 30.00 | NNW | 0 | 0.00 |
| 54 | 10/24 | 19:00 | 65 | 52 | 63 | 30.00 | NNW | 0 | 0.00 |
| 55 | 10/24 | 18:00 | 69 | 51 | 54 | 29.98 | NNW | 0 | 0.00 |
| 56 | 10/24 | 17:00 | 75 | 49 | 41 | 29.99 | NNW | 0 | 0.00 |
| 57 | 10/24 | 16:00 | 75 | 48 | 40 | 30.00 | NNW | 0 | 0.00 |
| 58 | 10/24 | 15:00 | 76 | 49 | 39 | 30.01 | NNW | 0 | 0.00 |
| 59 | 10/24 | 14:00 | 73 | 50 | 45 | 30.04 | NNW | 0 | 0.00 |
| 60 | 10/24 | 13:00 | 73 | 51 | 47 | 30.06 | NNW | 0 | 0.00 |
| 61 | 10/24 | 12:00 | 68 | 50 | 53 | 30.09 | NNW | 0 | 0.00 |
| 62 | 10/24 | 11:00 | 64 | 50 | 62 | 30.12 | NNW | 0 | 0.00 |
| 63 | 10/24 | 10:00 | 60 | 52 | 77 | 30.14 | NNW | 0 | 0.00 |
| 64 | 10/24 | 09:00 | 51 | 44 | 78 | 30.15 | NNW | 0 | 0.00 |
| 65 | 10/24 | 08:00 | 46 | 41 | 84 | 30.14 | NNW | 0 | 0.00 |
| 66 | 10/24 | 07:00 | 46 | 42 | 87 | 30.13 | NNW | 0 | 0.00 |
| 67 | 10/24 | 06:00 | 48 | 44 | 88 | 30.13 | NNW | 0 | 0.00 |
| 68 | 10/24 | 05:00 | 50 | 46 | 88 | 30.13 | NNW | 0 | 0.00 |
| 69 | 10/24 | 04:00 | 51 | 47 | 87 | 30.13 | NNW | 0 | 0.00 |
| 70 | 10/24 | 03:00 | 51 | 45 | 82 | 30.15 | NNW | 0 | 0.00 |